Cloud_Cover
100 100 100 100 100 100 100 100 100 100 100 100 100 100 100 100 100 100 100 18 98 98 89 5 13 39 64 16 91 68 11 86 69 39 95 100 100 100 100 100 100 100 100 100 100 100 100 100 14 98 100 100 100 100
100 100 100 100 100 100 100 100 100 100 100 100 100 100 100 100 95 99 100 99 100 79 85 25 14 5 5 11 10 5 38 95 97 98 94 93 100 100 100 100 100 100 100 100 100 100 100 100 100 100 100 100 100 100
100 100 100 100 100 100 100 100 100 100 100 100 100 100 100 100 100 100 100 85 100 45 23 35 17 28 3 1 5 18 63 57 100 54 94 89 100 100 100 100 100 100 100 100 100 100 100 100 100 100 100 100 100 100
100 100 100 100 100 100 100 100 100 100 100 100 100 100 100 100 100 92 100 100 100 90 96 86 40 15 1 4 5 5 6 71 92 83 92 99 100 100 100 100 100 100 100 100 100 100 100 100 100 100 100 100 100 100
100 100 100 100 100 100 100 100 100 100 100 100 100 100 100 100 100 100 100 100 100 93 100 66 26 5 5 5 5 8 68 95 100 84 88 96 100 100 100 100 100 100 100 100 100 100 100 100 100 100 100 100 100 100
100 100 100 100 100 100 100 100 100 100 100 100 100 100 100 100 100 100 100 100 99 59 100 86 96 5 5 5 5 5 83 96 100 63 100 100 100 100 100 100 100 100 100 100 100 100 100 100 100 100 100 100 100 99
100 100 100 100 100 100 100 100 100 100 100 100 100 100 100 100 100 100 100 99 95 100 70 87 94 84 6 30 78 65 91 100 100 95 83 96 97 100 100 100 100 100 100 100 100 100 100 100 100 100 100 100 100 100
99 100 100 100 100 100 100 100 100 100 100 100 100 100 100 100 100 100 100 29 60 84 65 100 69 82 3 96 94 100 100 100 100 88 99 97 100 100 100 99 88 100 100 86 100 100 100 94 88 86 80 100 100 100
39 82 100 100 100 100 100 100 100 100 100 100 100 100 100 100 100 89 100 100 75 97 91 100 98 99 9 94 100 100 100 100 89 97 100 100 100 100 100 100 100 100 62 99 83 96 100 86 96 90 85 91 99 100
1 93 87 100 100 100 100 100 100 100 100 100 100 100 100 100 38 32 98 100 100 100 100 67 61 79 50 95 100 100 82 97 100 70 95 96 98 98 100 100 92 76 70 60 13 28 30 51 38 51 97 91 100 100
39 1 86 100 100 100 100 100 100 100 100 100 100 93 62 7 74 100 99 94 58 96 46 51 94 98 91 70 87 70 76 100 92 91 99 100 100 100 99 94 84 86 50 55 36 35 40 75 96 59 100 100 99 100
30 3 96 100 100 100 100 100 100 100 100 69 86 100 99 100 100 85 97 82 97 95 91 85 93 99 100 86 97 100 97 64 85 84 91 98 100 100 100 100 88 31 48 90 100 100 100 100 100 100 100 100 100 100
9 10 100 100 100 100 100 100 75 97 99 100 100 100 100 93 100 100 99 100 96 100 57 86 79 99 70 98 100 77 100 100 83 94 88 100 100 100 100 78 80 100 100 80 100 100 100 100 77 57 79 100 100 100
84 100 100 100 100 100 100 100 100 100 100 100 100 100 98 94 37 100 96 100 92 71 73 82 100 100 92 100 82 100 100 100 98 96 99 100 100 100 100 100 100 100 100 100 82 9 7 5 21 98 100 100 100 100
100 100 100 100 100 100 100 100 100 100 100 100 100 92 48 64 32 27 100 100 93 75 75 96 96 97 90 100 86 91 100 99 100 100 100 100 100 100 100 100 91 90 44 85 97 89 99 85 92 100 100 100 100 100
100 100 100 100 100 100 100 100 100 100 100 100 100 100 84 100 100 100 100 100 100 97 100 100 88 100 100 100 100 100 100 100 100 100 100 100 100 98 94 85 99 95 99 99 100 100 100 100 100 98 100 100 100 100
99 100 100 100 100 100 100 100 100 100 100 99 100 95 93 100 100 100 100 100 99 100 98 100 100 95 100 100 100 100 100 100 100 100 100 90 100 100 100 98 97 96 100 99 100 100 100 100 97 100 100 100 100 100
100 100 100 100 100 100 100 100 100 78 92 96 99 91 100 100 100 100 100 100 100 100 100 99 96 88 100 100 100 100 100 100 100 100 99 100 100 100 100 100 100 95 100 100 100 100 100 99 100 100 100 100 100 100
38 35 100 100 100 93 100 99 90 79 77 100 100 100 100 100 100 100 100 100 100 100 97 65 93 93 100 100 100 100 100 100 100 100 100 100 100 99 98 99 85 100 98 100 100 100 100 100 100 100 100 100 100 100
37 27 84 100 100 98 85 96 84 99 100 100 100 100 100 100 99 100 100 100 100 100 100 100 100 100 100 100 100 100 100 100 100 100 100 100 93 98 100 100 100 100 100 100 100 95 100 100 100 100 100 100 100 100
92 65 100 100 100 100 100 100 92 99 100 100 100 100 100 100 100 100 100 100 100 100 100 100 100 100 100 100 100 100 100 100 100 100 100 100 100 100 100 100 100 100 100 100 100 100 100 100 100 100 100 100 100 100
100 100 100 100 100 100 100 100 100 100 100 100 100 100 100 100 100 100 100 100 100 100 100 100 100 100 100 100 100 100 99 99 99 94 89 86 100 100 100 100 100 100 100 100 100 100 100 100 96 100 100 100 100 100
100 100 100 100 100 100 100 100 100 100 100 100 100 99 100 100 100 77 100 100 100 100 100 100 100 100 100 100 100 100 98 100 100 100 100 100 100 100 100 100 100 100 100 100 100 100 100 90 99 97 100 100 100 100
100 100 100 100 93 100 100 100 100 100 100 100 100 100 96 100 79 94 100 100 100 100 100 100 100 100 100 100 100 100 100 100 100 100 100 100 100 100 100 100 100 100 100 100 100 100 100 100 97 100 100 100 100 100
100 100 100 100 98 100 100 100 100 100 100 100 100 97 99 93 100 100 100 100 100 100 100 100 100 100 100 100 100 100 96 100 100 100 100 100 100 100 100 100 100 100 100 100 100 100 100 100 100 100 100 100 100 100
100 96 93 99 98 88 97 100 99 93 100 100 99 100 100 99 98 96 99 100 100 100 100 100 100 100 100 100 100 100 100 100 100 100 100 100 100 100 100 100 100 100 100 100 100 100 100 100 100 100 100 90 69 98
91 100 72 74 94 88 94 92 100 98 100 100 100 100 100 100 100 99 100 100 100 100 100 100 100 100 100 100 100 100 100 100 100 100 100 100 100 100 100 100 100 100 100 100 100 100 100 100 100 100 100 100 100 100
85 95 78 99 87 93 91 94 95 100 99 92 92 99 100 100 100 100 100 100 100 100 100 100 100 100 100 100 100 100 100 100 100 100 100 100 100 100 100 100 100 99 100 100 100 100 100 100 100 100 100 100 100 100
100 100 99 100 89 98 100 100 100 100 100 100 100 100 100 100 100 100 100 100 100 100 100 100 100 100 100 100 100 100 100 100 100 100 100 100 100 100 100 100 100 100 100 100 99 100 100 100 100 100 100 100 100 100
96 100 91 98 99 100 100 100 100 100 100 100 100 100 100 100 100 100 100 100 100 100 100 100 100 100 100 100 100 100 100 100 100 100 100 100 100 100 100 100 100 100 100 100 100 100 86 99 100 100 96 100 100 100
100 99 100 100 100 100 100 100 100 100 100 100 100 100 100 100 100 100 100 100 100 100 100 100 100 100 100 100 100 100 100 100 100 88 84 100 100 100 100 100 100 100 100 100 100 100 100 98 100 100 100 100 99 85
100 98 81 100 100 100 100 100 100 100 100 100 100 100 100 100 100 100 100 100 100 100 98 100 100 100 100 100 98 56 86 98 98 80 72 97 100 100 100 100 100 100 100 100 100 100 100 100 100 100 100 100 100 100
100 100 100 100 100 100 100 100 100 100 100 100 100 100 100 100 100 100 100 100 100 100 100 100 100 88 78 98 94 65 58 87 77 84 78 54 86 97 97 100 100 100 100 100 100 100 100 100 100 100 100 100 100 100